Location: Los Angeles
(34.0542°N, 118.2411°W)
Time: 04:34:22
(UTC-08:00)

Daily predictions for brighter satellites

Satellite Brightness Start Highest point End
(mag) Time Altitude Azimuth Time Altitude Azimuth Time Altitude Azimuth
Cosmos 1943 Rocket 4.4 03:09:50 19° ENE 03:09:50 19° ENE 03:11:52 10° NE
ATLAS CENTAUR R/B 4.3 03:15:18 43° NE 03:16:02 44° NE 03:29:42 10° SE
CZ-4C R/B 4.5 03:18:41 16° ESE 03:18:41 16° ESE 03:21:56 10° ENE
Lacrosse 5 3.6 03:49:14 28° NE 03:49:14 28° NE 03:51:36 10° NE
ADEOS II 3.8 03:46:09 10° NNE 03:48:13 24° NNE 03:48:13 24° NNE
USA 234 3.3 03:51:41 10° NE 03:57:37 68° N 03:57:37 68° N
Cosmos 2369 Rocket 4.0 04:07:22 20° N 04:07:22 20° N 04:09:14 10° N
Cosmos 407 Rocket 4.2 04:08:27 13° N 04:13:08 54° ENE 04:18:19 10° SSE
Cosmos 1656 Rocket 4.5 04:10:17 24° S 04:13:30 50° ESE 04:18:58 10° NNE
OAO 1 Rocket 4.4 04:24:47 72° S 04:24:47 72° S 04:30:01 10° ESE
Nadezhda 2 Rocket 4.4 04:18:49 10° N 04:24:57 83° E 04:31:05 10° S
GEOS 3 Rocket 3.4 04:25:20 10° SSE 04:30:25 79° WSW 04:31:06 66° WNW
Okean 1-7 3.7 04:29:45 10° S 04:33:54 53° E 04:38:03 10° NNE
Tiangong 1 3.4 04:39:12 19° NE 04:39:12 19° NE 04:40:17 10° NE
Cosmos 1190 Rocket 3.9 04:37:58 35° NNW 04:40:09 70° WSW 04:45:24 10° S
Sich 1 Rocket 3.4 04:36:32 10° N 04:41:03 75° W 04:45:29 10° S
Cosmos 1908 Rocket 3.4 04:38:42 10° N 04:43:11 75° W 04:47:37 10° S
Cosmos 1417 Rocket 4.4 04:38:11 10° S 04:44:23 88° E 04:50:33 10° N
ATLAS 5 CENTAUR R/B 3.4 04:45:45 21° NNW 04:45:45 21° NNW 04:48:30 10° N
Meteor 2-10 Rocket 3.3 04:43:41 20° SSW 04:47:08 71° W 04:52:10 10° N
Chunghua 1 4.5 04:48:08 75° NNW 04:48:13 76° N 04:52:00 10° E
Cosmos 1782 Rocket 3.8 04:44:17 10° N 04:48:44 70° E 04:53:08 10° SSE
Okean-O 2.6 04:46:17 10° N 04:50:37 54° WNW 04:50:57 53° W
Cosmos 1943 Rocket 3.0 04:51:24 31° NW 04:51:24 31° NW 04:55:42 10° N
Cosmos 1782 4.1 04:50:31 10° SSE 04:54:15 41° E 04:57:59 10° NNE
SKYMED 2 4.5 04:52:04 10° SSE 04:56:14 50° ENE 05:00:27 10° N
Radarsat Rocket 4.4 04:49:28 10° NNE 04:56:36 75° ESE 05:02:51 10° S
Meteor 1-14 Rocket 4.1 04:59:10 10° N 05:04:58 81° W 05:10:37 10° S
CZ-4C R/B 2.2 05:03:56 29° WSW 05:06:25 52° NW 05:12:03 10° NNE
Cosmos 1954 Rocket 3.9 05:01:53 10° NNW 05:07:13 86° WSW 05:12:32 10° SSE
Cosmos 1420 Rocket 3.9 05:04:43 10° SSW 05:09:51 69° WNW 05:15:01 10° NNE
Cosmos 1606 3.7 05:06:31 10° SSE 05:10:14 49° E 05:14:00 10° NNE
NOAA 6 4.0 05:06:33 10° N 05:11:38 62° WNW 05:16:41 10° SSW
Okean 2 Rocket 3.0 05:07:19 10° N 05:11:44 87° W 05:16:07 10° S
Ariane Rocket 3.9 05:07:01 10° NNE 05:11:58 52° E 05:16:53 10° S
Cosmos 1703 Rocket 4.4 05:18:40 25° W 05:19:01 26° WNW 05:22:41 10° NNW
Thor Agena Rocket 3.9 05:17:38 10° S 05:22:34 42° W 05:27:30 10° NNW
Meteor 2-6 Rocket 4.3 05:18:56 10° S 05:24:18 76° E 05:29:42 10° NNE
SL-08 R/B 4.5 05:19:30 10° NNW 05:25:46 67° W 05:32:02 10° S
Meteor 1-31 Rocket 4.4 05:24:02 10° NNW 05:25:51 17° NW 05:25:51 17° NW
Lacrosse 5 3.6 05:28:28 14° NW 05:30:08 16° NNW 05:33:14 10° N
ADEOS II 4.1 05:29:09 10° NW 05:29:11 10° NW 05:29:11 10° NW
Delta 2 Rocket 3.9 05:27:00 18° WSW 05:30:40 86° SSE 05:36:10 10° ENE
Cosmos 2151 Rocket 4.0 05:26:25 10° N 05:30:55 69° E 05:35:21 10° SSE
S3M 4.2 05:26:06 10° SSW 05:32:12 48° W 05:38:17 10° N
CZ-4 R/B 3.5 05:29:16 10° NNE 05:32:59 32° E 05:36:39 10° SSE
Meteor 1-25 Rocket 4.3 05:29:01 10° NNW 05:34:46 63° W 05:40:31 10° S
Cosmos 1607 3.9 05:29:57 10° SSW 05:36:03 87° WNW 05:42:15 10° NNE
USA 238 DEB 4.4 05:31:32 10° SSW 05:38:23 61° ESE 05:45:17 10° NE
USA 238 4.4 05:31:37 10° SSW 05:38:29 61° ESE 05:45:22 10° NE
Cosmos 1553 Rocket 4.4 05:34:23 10° SSW 05:40:05 39° WNW 05:45:54 10° N
Cosmos 1110 Rocket 4.4 05:37:53 10° S 05:42:59 67° ESE 05:48:07 10° NNE
CSL-04 Debris 4.4 05:38:21 10° NNE 05:43:45 79° ESE 05:49:07 10° S
COSMO-SKYMED 1 3.0 05:40:10 10° S 05:44:16 41° W 05:48:22 10° NNW
Cosmos 2219 3.2 05:42:00 10° NNW 05:47:38 67° WSW 05:53:11 10° S
Cosmos 1741 Rocket 4.0 05:44:38 10° NNW 05:49:52 76° WSW 05:55:07 10° S
Meteor 1-10 Rocket 4.4 05:46:47 10° SSW 05:52:09 51° W 05:57:37 10° N
Meteor 1-11 Rocket 4.4 05:47:46 10° N 05:53:42 65° E 05:59:30 10° SSE
Cosmos 2227 Rocket 3.7 05:49:06 10° N 05:54:25 40° ENE 05:59:41 10° SE
CSL-04 DEB 4.5 05:54:31 10° NNE 05:58:29 79° ESE 06:02:23 10° S
SJ-12 3.9 06:00:06 10° N 06:04:13 86° W 06:08:19 10° SSW
ATLAS 3B R/B 3.0 05:58:49 10° SW 06:06:16 57° WNW 06:13:30 10° NNE
